Theta_e
349 351 357 356 375 371 365 361 358 359 357 352 351 353 356 357 361 367 352 353 350 349 350 351 348 353 349 349 352 351 353 353 352 352 350 352 353 353 355 355 354 354 355 355 353 352 351 351 351
355 357 358 360 377 371 365 359 358 358 355 354 350 352 357 361 353 352 353 353 351 350 348 348 349 352 352 341 348 349 353 353 350 348 350 347 352 352 353 353 353 353 353 353 355 355 353 354 350
351 357 368 365 367 369 366 357 356 354 354 352 353 351 357 357 352 351 352 353 351 350 350 351 347 350 348 341 345 347 350 353 348 346 347 339 346 348 351 353 353 353 352 352 352 353 354 354 354
353 361 362 367 362 358 356 355 354 354 354 352 352 358 354 350 351 351 352 353 351 352 354 349 342 347 350 345 346 350 342 348 343 349 345 336 333 337 345 349 352 352 352 352 352 351 350 350 352
350 357 360 359 363 356 352 353 352 354 353 352 353 358 356 351 351 350 352 353 352 353 354 353 347 346 349 352 353 352 352 344 341 339 334 334 337 332 341 343 346 352 352 353 352 352 351 349 348
355 353 357 359 355 353 353 352 352 353 353 352 355 358 356 351 350 350 351 352 352 354 351 352 353 351 350 352 353 351 351 347 341 334 330 331 335 336 336 341 343 346 351 352 351 352 350 349 346
350 349 352 353 358 353 354 350 351 350 351 351 350 360 355 352 350 351 350 351 352 352 351 351 351 354 354 352 351 348 350 348 340 334 330 334 332 333 333 342 345 342 344 350 350 350 349 347 344
347 345 346 348 350 353 349 345 349 349 352 350 349 362 359 351 350 350 349 349 350 349 350 350 350 350 351 352 353 352 352 349 343 336 337 335 332 332 335 340 343 342 348 350 351 350 347 346 343
344 344 347 347 347 350 348 347 348 350 351 352 352 354 352 349 349 349 349 349 349 350 349 349 350 349 347 348 352 352 353 351 348 345 343 339 334 333 335 336 345 346 346 349 351 350 352 349 343
342 343 343 344 345 346 347 347 349 353 351 354 356 353 351 349 349 349 349 349 349 349 348 348 348 348 348 349 352 352 352 350 349 347 346 343 340 337 338 339 342 343 347 349 347 340 336 345 350
340 343 340 341 341 342 347 349 348 351 349 350 357 357 352 349 349 348 348 348 348 349 348 348 349 349 349 347 350 351 350 348 348 346 346 345 345 341 340 340 339 340 340 344 344 345 346 347 348
339 338 340 340 339 342 344 345 347 348 350 350 353 355 352 351 350 348 347 346 347 348 349 348 349 351 350 351 351 351 350 348 348 347 348 344 347 345 343 342 340 339 342 345 342 344 344 349 348
338 336 336 337 339 340 343 345 345 347 350 350 353 354 352 351 348 347 346 347 347 349 349 350 351 352 351 352 352 351 350 349 345 348 348 348 346 347 345 345 345 343 347 345 342 344 345 347 348
335 335 336 336 337 338 340 341 345 345 347 352 355 355 352 351 348 347 347 348 348 349 350 350 351 353 353 353 352 351 351 352 346 346 350 351 348 348 349 346 348 348 346 345 346 344 345 348 345
337 337 337 337 337 338 338 342 342 345 347 352 354 354 353 352 350 348 348 349 349 349 350 351 352 353 354 353 354 352 352 351 349 346 346 351 350 349 349 348 348 349 348 347 346 345 348 345 344
336 338 340 337 335 340 338 341 340 345 347 350 352 354 354 353 352 351 350 350 350 350 351 352 352 353 354 354 354 354 351 351 348 347 348 349 350 351 350 347 347 348 348 345 345 346 344 343 344
335 338 335 335 334 333 336 338 340 338 343 345 350 353 354 353 353 352 352 352 352 352 352 353 353 353 354 355 354 354 353 352 348 344 342 348 351 351 349 350 348 352 350 350 348 345 344 345 345
335 335 333 334 333 332 332 334 334 335 339 343 346 350 353 353 354 353 352 353 352 353 355 356 356 355 353 354 354 353 352 351 347 344 343 343 344 348 350 349 349 349 349 350 350 350 349 349 347
332 333 333 333 332 331 332 333 333 334 334 337 342 347 351 353 352 352 352 352 353 353 356 358 359 353 341 341 355 355 356 353 350 349 346 343 350 345 345 346 347 350 350 348 349 349 350 350 350
332 332 333 332 331 331 332 333 334 335 337 338 340 346 348 351 353 353 352 349 352 354 356 359 359 354 344 344 356 356 352 352 352 353 349 350 351 348 344 344 344 349 348 352 350 352 350 351 350
333 332 331 331 331 333 335 338 339 340 341 342 341 345 346 350 353 355 354 351 351 354 356 359 361 362 358 356 355 356 356 353 353 353 353 353 351 346 346 346 345 343 349 349 351 352 349 351 349
332 332 331 331 333 337 336 346 340 341 343 341 342 344 345 347 351 353 354 353 352 352 353 357 360 362 362 360 359 357 358 354 355 352 352 351 352 351 351 350 346 346 347 345 350 352 351 353 348
331 332 331 332 333 335 336 343 343 341 346 345 345 345 342 345 348 351 352 353 354 351 349 354 360 361 362 362 360 359 358 353 354 353 353 350 347 353 353 352 352 351 348 345 347 348 350 350 351
331 331 333 334 334 337 337 338 349 347 345 345 346 347 348 346 344 349 350 350 354 353 350 351 359 361 362 362 362 363 359 356 353 353 353 353 353 354 351 353 354 351 352 352 353 353 352 350 348
331 332 336 339 337 342 337 334 344 343 344 345 347 348 349 348 346 347 351 350 353 354 353 353 356 360 362 361 362 363 363 359 358 357 354 351 354 351 355 355 353 354 354 355 354 352 352 352 350
334 334 336 341 341 340 337 339 344 341 341 345 347 351 351 352 352 352 352 352 353 355 356 356 357 361 361 361 362 362 363 361 360 358 354 352 349 349 350 356 355 354 356 355 354 349 351 352 352
335 334 335 334 335 335 338 338 337 339 339 344 347 353 354 355 356 357 356 355 356 356 357 359 359 360 363 361 362 362 362 362 361 359 359 355 354 352 355 354 355 355 354 354 353 351 346 349 351
334 336 336 338 343 344 341 339 344 343 339 344 345 354 355 354 358 357 355 354 356 356 357 358 358 360 360 360 359 358 359 361 361 361 359 357 356 356 357 356 355 355 353 354 353 352 351 350 351
335 334 335 335 337 340 341 341 340 340 342 343 343 351 353 356 353 351 350 350 352 352 351 351 354 355 357 357 356 352 352 355 358 359 361 359 357 358 356 359 357 355 353 352 351 352 351 352 352
335 335 336 339 339 340 339 340 341 341 339 342 342 346 352 354 352 349 349 349 349 349 349 350 350 351 353 354 357 357 359 359 358 358 359 354 346 351 356 359 357 355 352 352 352 351 352 352 352
Wind_Speed
4 4 6 6 5 4 9 10 14 5 6 14 7 14 17 17 11 6 28 22 26 25 21 21 21 19 19 21 20 21 19 19 18 16 17 16 15 14 14 15 16 16 16 15 15 15 15 14 14
11 4 8 4 2 1 7 12 12 14 11 9 10 3 15 16 11 19 18 26 25 24 22 20 22 20 21 23 22 22 19 19 18 16 14 13 13 12 11 12 13 13 13 13 13 12 13 12 12
6 8 9 4 5 5 6 12 9 8 8 8 9 13 12 11 19 16 24 26 23 24 22 21 22 20 21 25 24 22 22 18 17 14 13 11 10 9 8 9 9 10 11 11 11 10 10 10 10
8 6 6 4 12 10 10 6 6 8 11 6 6 15 10 21 13 23 25 28 23 22 20 21 22 20 20 23 23 22 24 23 19 17 14 13 10 5 5 4 6 7 8 9 10 8 7 7 7
16 8 3 8 13 8 8 6 5 9 7 14 15 17 17 11 18 25 24 28 24 22 20 20 21 21 20 21 21 22 21 23 22 20 18 10 9 13 2 3 0 4 5 5 7 6 4 4 4
8 4 3 9 11 7 8 3 3 8 6 14 18 16 11 13 24 22 21 28 26 23 22 19 19 20 20 21 21 22 21 20 21 21 23 20 14 14 12 2 4 2 2 2 3 3 2 2 2
4 4 8 8 12 11 8 7 11 6 8 12 5 15 12 17 23 22 20 20 28 25 23 19 17 17 18 20 20 21 21 20 19 18 21 18 24 20 17 4 5 5 3 2 1 2 1 1 2
5 2 10 7 14 13 4 10 4 11 11 4 6 5 15 20 23 21 21 20 20 20 19 20 19 17 17 16 17 18 18 18 17 18 18 19 25 26 20 8 5 6 4 4 4 3 3 3 4
9 4 8 13 12 11 4 11 8 3 8 9 1 11 21 27 25 22 20 19 18 21 20 20 20 18 18 17 18 19 18 19 17 16 17 17 25 28 26 16 7 6 7 6 5 5 5 5 6
9 8 8 7 13 10 7 8 3 3 6 12 11 13 22 27 25 22 20 20 19 17 18 18 19 18 16 20 19 17 17 17 18 18 18 17 20 23 22 21 14 9 9 9 10 9 8 8 9
8 8 7 6 10 5 6 7 2 6 14 12 13 14 18 23 22 21 20 20 19 17 17 17 16 17 20 17 15 15 15 14 16 17 18 19 20 18 18 18 20 15 14 11 14 12 11 11 8
12 8 5 4 5 2 5 4 7 7 7 9 14 17 18 18 18 20 20 20 20 19 17 17 15 12 13 18 18 14 15 14 15 16 17 18 17 17 18 16 19 18 16 14 12 10 7 5 7
8 4 5 6 1 1 6 0 6 3 8 11 15 16 17 16 18 19 19 20 19 19 17 15 16 15 14 9 10 12 15 15 13 14 16 15 15 16 17 16 18 16 14 14 12 11 10 7 11
2 2 5 5 4 1 3 3 1 9 9 13 15 16 15 16 17 18 18 17 20 19 19 17 16 16 15 14 11 12 12 14 14 12 14 17 15 14 14 15 17 17 15 17 16 12 11 11 9
7 10 4 8 6 4 6 10 6 10 9 12 13 14 15 15 18 18 19 19 19 19 18 17 18 18 16 15 14 12 8 9 13 11 11 12 14 14 11 12 12 14 19 16 11 10 8 10 12
10 7 3 10 2 5 9 1 11 10 7 11 12 12 13 16 17 18 20 18 18 19 17 18 17 18 17 15 12 11 10 5 10 10 12 10 10 10 11 9 9 9 12 12 15 11 12 12 13
6 6 5 4 3 5 4 10 6 4 8 6 11 16 13 14 16 19 20 19 20 17 18 19 17 15 15 15 11 12 13 10 11 12 16 12 10 11 11 9 11 11 10 10 10 12 11 13 12
8 8 4 2 4 8 11 7 6 7 11 9 9 13 14 15 16 20 19 20 19 19 18 18 17 13 16 9 12 13 11 11 14 17 18 14 14 10 9 12 11 14 13 12 13 12 10 9 10
5 9 9 4 3 5 11 10 8 7 3 7 9 12 17 16 15 20 20 19 19 19 20 19 20 22 18 18 13 13 13 15 14 16 17 17 13 9 11 13 14 13 13 14 12 13 11 11 13
9 8 6 3 3 8 9 8 5 3 2 3 6 11 15 16 16 17 21 18 19 20 20 20 20 20 21 19 18 18 17 19 18 15 18 14 13 14 14 15 18 16 15 14 12 10 11 13 8
15 2 10 10 10 14 8 9 8 8 4 6 5 10 13 15 17 17 19 22 21 19 19 22 23 22 20 21 17 13 11 9 13 12 14 16 18 17 19 19 20 23 16 12 10 10 10 11 8
14 10 8 10 13 4 2 3 9 10 12 10 11 12 13 15 16 17 18 21 20 20 16 20 22 22 21 20 20 16 13 13 13 11 12 16 15 17 22 20 22 21 19 17 13 12 12 10 10
12 7 8 9 12 13 9 5 7 15 11 8 7 3 6 14 16 17 16 21 22 19 16 19 20 21 20 19 18 16 15 11 10 11 11 14 15 16 17 17 19 19 21 19 18 18 15 13 11
10 10 15 11 11 9 5 6 3 7 9 6 3 2 2 6 7 13 18 18 20 22 18 15 17 16 17 15 15 15 13 12 9 11 9 12 15 17 19 17 17 19 19 19 16 19 15 14 11
10 17 9 9 7 5 7 8 10 9 9 9 5 7 6 1 4 4 9 14 17 19 23 20 15 13 13 12 13 14 14 12 11 10 12 14 21 14 20 19 17 18 18 17 18 17 17 15 15
14 15 8 5 6 8 5 4 4 6 5 7 6 11 7 8 7 6 3 7 14 14 13 14 15 14 12 12 14 15 14 14 15 15 15 17 14 12 10 15 15 18 18 17 17 18 16 16 16
9 8 10 11 7 6 2 6 7 8 5 7 6 13 8 10 11 10 7 1 3 7 9 9 11 9 11 12 12 14 15 16 16 13 15 17 15 12 7 13 12 17 19 20 21 20 23 20 18
15 10 7 5 2 8 6 4 9 7 5 7 6 9 9 8 8 7 6 5 3 3 6 6 7 9 9 10 13 12 14 17 16 17 16 17 14 14 11 12 15 17 19 20 21 21 21 19 17
9 12 9 8 8 8 9 7 7 5 7 4 6 9 4 9 6 5 7 6 6 5 4 0 3 6 8 12 13 14 13 14 17 19 18 16 14 15 16 14 16 16 17 19 22 22 20 19 18
12 14 11 9 6 9 7 5 10 8 7 5 5 3 8 7 5 3 7 6 7 5 5 5 6 2 7 9 14 20 20 15 15 18 18 13 10 14 18 14 16 16 16 16 19 21 20 19 20
Wind_Direction
251 209 249 249 271 223 55 45 78 110 32 72 50 16 62 44 41 86 141 136 138 139 144 142 144 138 145 141 139 142 129 124 119 111 107 103 103 103 102 104 106 105 103 105 105 105 108 115 120
238 219 238 264 236 240 71 81 46 53 65 72 50 163 92 61 94 124 128 139 141 139 146 148 150 145 149 146 147 148 138 132 124 113 103 99 96 98 97 99 103 105 107 108 105 110 112 116 122
252 228 262 225 89 73 64 57 52 74 52 35 98 39 23 96 113 127 129 137 141 141 144 149 156 149 153 153 153 153 154 140 129 118 110 105 76 64 92 98 99 105 109 109 109 112 115 120 124
224 202 238 173 44 43 86 75 87 75 76 68 105 93 79 116 125 127 139 135 141 137 139 154 161 157 154 156 157 158 166 157 151 136 124 126 146 120 9 99 109 109 110 112 111 111 113 122 127
234 263 224 61 95 51 51 36 33 55 50 38 84 90 115 96 122 139 144 142 145 139 142 149 163 162 160 160 158 159 159 165 167 164 148 128 148 171 270 340 205 123 114 112 109 109 111 111 117
254 259 116 84 93 130 79 27 26 81 92 126 118 110 107 126 137 143 151 142 145 152 152 151 155 160 165 163 166 166 165 162 170 169 176 185 184 183 195 269 278 249 162 120 107 123 133 130 152
334 55 62 98 93 64 61 355 31 49 20 57 171 103 128 144 148 150 156 149 153 161 153 157 161 160 160 168 172 178 181 181 186 184 185 197 194 198 198 227 274 254 252 217 173 184 217 220 240
262 231 103 73 76 75 62 79 69 16 63 120 329 180 153 149 157 157 151 157 151 148 153 164 166 172 174 179 179 182 184 180 185 196 192 195 197 202 207 229 279 245 253 246 230 246 276 268 270
229 53 71 70 100 102 143 93 74 48 83 61 340 72 147 151 159 160 155 156 154 156 166 167 169 175 180 183 191 190 188 185 181 183 187 194 205 209 217 227 238 255 254 248 246 251 261 266 270
73 62 67 69 82 96 97 70 64 184 133 107 90 96 136 155 163 165 170 160 170 170 173 169 174 178 184 183 181 194 197 192 191 189 193 198 208 214 221 224 238 255 254 250 251 257 261 258 226
44 61 91 77 54 65 94 131 238 155 42 65 124 140 155 159 169 171 175 169 176 176 181 170 172 176 180 195 183 194 196 196 196 197 200 203 203 211 222 225 231 242 247 240 242 249 245 264 269
106 68 38 43 86 134 46 70 77 24 70 67 110 147 161 169 176 175 178 171 177 182 189 170 181 181 201 179 192 197 205 199 207 210 206 210 210 204 209 212 219 226 242 229 244 254 271 245 278
5 44 125 127 261 281 77 5 17 152 125 109 123 153 164 176 178 180 183 173 181 181 188 181 180 184 202 211 210 221 196 192 221 227 213 205 214 217 210 211 222 218 245 258 236 246 271 274 251
83 270 297 114 125 224 292 323 287 112 134 128 143 157 170 179 178 181 191 182 183 184 186 191 192 188 203 213 217 232 189 192 195 219 221 211 216 213 214 209 217 220 224 229 239 230 253 237 255
285 259 185 71 50 327 310 228 174 103 150 151 161 168 171 181 177 180 189 188 185 187 187 196 196 188 200 205 208 222 245 201 190 191 244 223 215 220 217 222 211 207 216 227 235 238 232 253 238
247 237 269 95 277 122 278 328 113 134 174 164 176 167 176 182 180 187 187 187 181 191 188 196 195 194 195 210 209 215 226 207 174 177 221 241 226 210 219 226 215 226 218 205 227 216 230 233 235
211 152 40 132 147 298 227 317 108 159 164 202 174 168 185 179 189 189 185 192 179 196 184 192 191 192 190 205 213 217 225 201 202 227 234 239 237 223 219 223 228 223 218 228 240 222 233 216 234
49 337 66 286 47 329 296 270 252 230 172 190 189 179 186 183 193 184 194 191 196 185 188 196 184 192 193 193 227 222 229 226 230 241 225 237 245 236 224 237 237 230 224 223 230 245 250 261 263
303 289 317 311 344 283 289 297 265 268 254 192 196 187 183 188 187 181 189 191 196 191 193 195 180 187 200 214 226 220 216 207 214 220 223 217 228 233 236 246 251 233 227 231 239 224 217 231 244
294 276 287 6 27 266 259 288 324 43 18 275 209 187 188 186 181 182 192 179 199 194 192 194 199 202 220 210 218 219 215 208 207 217 224 214 220 224 237 238 242 247 234 237 229 218 213 230 234
271 318 5 328 296 245 258 229 168 115 128 130 201 177 184 184 189 192 192 182 195 192 196 199 202 200 202 207 216 223 223 165 204 212 214 213 209 230 229 224 232 236 239 234 233 238 229 223 234
294 27 330 309 294 356 213 216 139 142 108 102 144 175 175 196 204 192 195 195 196 184 194 198 200 202 205 206 214 206 211 208 215 221 220 225 221 223 221 217 222 229 227 232 235 229 230 242 211
298 3 295 293 277 267 206 97 278 163 105 103 101 86 190 193 196 201 204 193 204 190 181 188 192 198 206 207 220 210 216 215 200 212 208 221 228 224 219 219 220 223 227 232 227 231 224 220 241
282 281 258 234 250 263 103 257 289 345 76 57 120 148 26 282 217 186 186 198 197 191 182 171 180 190 194 201 212 225 218 233 213 209 205 213 214 215 213 216 223 220 225 228 225 229 225 225 248
230 254 253 232 216 142 96 302 131 96 81 53 33 47 60 52 128 182 172 182 192 204 205 194 180 193 192 197 210 222 229 235 228 217 217 242 210 219 201 198 216 221 224 227 229 227 225 216 225
241 275 280 253 273 93 132 106 19 67 83 57 61 86 70 76 89 78 124 187 179 210 207 223 211 198 210 214 221 225 231 230 230 217 232 226 227 215 214 197 215 224 222 227 230 229 226 233 227
233 247 357 312 203 241 69 135 207 107 86 67 59 83 65 72 73 71 67 126 173 201 205 215 230 216 216 221 222 226 226 231 240 243 215 236 239 237 227 222 216 226 229 224 221 224 224 235 229
272 336 258 318 347 287 155 291 89 85 38 53 53 38 118 80 61 68 52 46 74 180 197 211 217 219 221 223 220 224 219 232 237 240 234 244 244 244 235 231 236 230 232 230 227 222 221 226 224
194 234 241 285 318 316 289 107 78 55 45 5 336 97 12 79 106 114 106 91 55 61 53 237 194 240 231 227 223 226 222 224 229 236 237 244 247 245 240 233 235 236 235 234 226 220 217 218 219
296 306 297 272 245 256 314 319 76 60 53 37 336 100 70 345 103 139 101 83 87 62 40 43 342 0 297 281 220 222 216 223 237 243 239 236 261 252 244 233 237 232 228 227 224 216 211 217 216